Time,TemperatureF,DewpointF,PressureIn,WindDirection,WindDirectionDegrees,WindSpeedMPH,WindSpeedGustMPH,Humidity,HourlyPrecipIn,Conditions,Clouds,dailyrainin,SoftwareType,DateUTC
2013-10-23 00:04:00,45.0,31.5,29.80,SSE,151,0.0,0.0,59,0.00,,---,0.00,VWS V14.01,2013-10-23 07:04:00,
2013-10-23 00:10:00,45.1,32.1,29.80,SSE,151,0.0,0.0,60,0.00,,---,0.00,VWS V14.01,2013-10-23 07:10:00,
2013-10-23 00:16:00,45.1,32.5,29.80,SSE,151,0.0,0.0,61,0.00,,---,0.00,VWS V14.01,2013-10-23 07:16:00,
2013-10-23 00:22:00,45.3,32.7,29.80,SSE,151,0.0,0.0,61,0.00,,---,0.00,VWS V14.01,2013-10-23 07:22:00,
2013-10-23 00:28:00,45.1,32.5,29.80,SSE,151,0.0,0.0,61,0.00,,---,0.00,VWS V14.01,2013-10-23 07:28:00,
2013-10-23 00:34:00,45.1,32.5,29.80,SSE,151,0.0,0.0,61,0.00,,---,0.00,VWS V14.01,2013-10-23 07:34:00,
2013-10-23 00:40:00,45.1,32.9,29.80,SSE,151,0.0,0.0,62,0.00,,---,0.00,VWS V14.01,2013-10-23 07:40:00,
2013-10-23 00:46:00,45.1,32.9,29.80,SSE,151,0.0,0.0,62,0.00,,---,0.00,VWS V14.01,2013-10-23 07:46:00,
2013-10-23 00:52:00,45.1,32.9,29.80,SSE,151,0.0,0.0,62,0.00,,---,0.00,VWS V14.01,2013-10-23 07:52:00,
2013-10-23 00:58:00,45.3,33.5,29.80,SSE,151,0.0,0.0,63,0.00,,---,0.00,VWS V14.01,2013-10-23 07:58:00,
2013-10-23 01:04:00,45.3,33.5,29.80,SSE,163,0.0,0.0,63,0.00,,---,0.00,VWS V14.01,2013-10-23 08:04:00,
2013-10-23 01:10:00,45.3,33.9,29.80,SSE,163,0.0,0.0,64,0.00,,---,0.00,VWS V14.01,2013-10-23 08:10:00,
2013-10-23 01:16:00,45.3,33.9,29.80,SSE,163,0.0,0.0,64,0.00,,---,0.00,VWS V14.01,2013-10-23 08:16:00,
2013-10-23 01:22:00,45.3,33.9,29.80,SSE,163,0.0,0.0,64,0.00,,---,0.00,VWS V14.01,2013-10-23 08:22:00,
2013-10-23 01:28:00,45.3,34.3,29.80,SSE,163,0.0,0.0,65,0.00,,---,0.00,VWS V14.01,2013-10-23 08:28:00,
2013-10-23 01:34:00,45.3,34.3,29.80,SSE,163,0.0,0.0,65,0.00,,---,0.00,VWS V14.01,2013-10-23 08:34:00,
2013-10-23 01:40:00,45.3,34.3,29.80,SSE,163,0.0,0.0,65,0.00,,---,0.00,VWS V14.01,2013-10-23 08:40:00,
2013-10-23 01:46:00,45.3,34.3,29.80,SSE,163,0.0,0.0,65,0.00,,---,0.00,VWS V14.01,2013-10-23 08:46:00,
2013-10-23 01:52:00,45.3,34.6,29.80,SSE,163,0.0,0.0,66,0.00,,---,0.00,VWS V14.01,2013-10-23 08:52:00,
2013-10-23 01:58:00,45.1,34.5,29.80,SSE,163,0.0,0.0,66,0.00,,---,0.00,VWS V14.01,2013-10-23 08:58:00,
2013-10-23 02:04:00,45.1,34.5,29.80,SSE,163,0.0,0.0,66,0.00,,---,0.00,VWS V14.01,2013-10-23 09:04:00,
2013-10-23 02:10:00,45.3,34.6,29.80,SSE,163,0.0,0.0,66,0.00,,---,0.00,VWS V14.01,2013-10-23 09:10:00,
2013-10-23 02:16:00,45.1,34.5,29.80,SSE,163,0.0,0.0,66,0.00,,---,0.00,VWS V14.01,2013-10-23 09:16:00,
2013-10-23 02:22:00,44.6,32.8,29.80,SSE,163,0.0,0.0,63,0.00,,---,0.00,VWS V14.01,2013-10-23 09:22:00,
2013-10-23 02:28:00,44.4,31.8,29.80,SSE,163,0.0,0.0,61,0.00,,---,0.00,VWS V14.01,2013-10-23 09:28:00,
2013-10-23 02:34:00,44.2,31.7,29.80,SSE,163,0.0,0.0,61,0.00,,---,0.00,VWS V14.01,2013-10-23 09:34:00,
2013-10-23 02:40:00,44.4,31.8,29.80,SSE,163,0.0,0.0,61,0.00,,---,0.00,VWS V14.01,2013-10-23 09:40:00,
2013-10-23 02:46:00,44.6,32.8,29.80,SSE,163,0.0,0.0,63,0.00,,---,0.00,VWS V14.01,2013-10-23 09:46:00,
2013-10-23 02:52:00,44.2,32.1,29.80,SSE,163,0.0,0.0,62,0.00,,---,0.00,VWS V14.01,2013-10-23 09:52:00,
2013-10-23 02:58:00,44.2,32.5,29.80,SSE,163,0.0,0.0,63,0.00,,---,0.00,VWS V14.01,2013-10-23 09:58:00,
2013-10-23 03:04:00,44.4,32.6,29.80,SSE,163,0.0,0.0,63,0.00,,---,0.00,VWS V14.01,2013-10-23 10:04:00,
2013-10-23 03:10:00,44.2,32.1,29.80,SSE,163,0.0,0.0,62,0.00,,---,0.00,VWS V14.01,2013-10-23 10:10:00,
2013-10-23 03:16:00,44.1,31.9,29.80,SSE,163,0.0,0.0,62,0.00,,---,0.00,VWS V14.01,2013-10-23 10:16:00,
2013-10-23 03:22:00,43.7,30.7,29.80,SSE,163,0.0,0.0,60,0.00,,---,0.00,VWS V14.01,2013-10-23 10:22:00,
2013-10-23 03:28:00,43.5,31.0,29.80,SSE,163,0.0,0.0,61,0.00,,---,0.00,VWS V14.01,2013-10-23 10:28:00,
2013-10-23 03:34:00,43.3,30.4,29.80,SSE,163,0.0,0.0,60,0.00,,---,0.00,VWS V14.01,2013-10-23 10:34:00,
2013-10-23 03:40:00,43.2,29.4,29.80,SSE,163,0.0,0.0,58,0.00,,---,0.00,VWS V14.01,2013-10-23 10:40:00,
2013-10-23 03:46:00,43.0,29.2,29.80,SSE,163,0.0,0.0,58,0.00,,---,0.00,VWS V14.01,2013-10-23 10:46:00,
2013-10-23 03:52:00,43.0,29.6,29.80,SSE,163,0.0,0.0,59,0.00,,---,0.00,VWS V14.01,2013-10-23 10:52:00,
2013-10-23 03:58:00,42.8,29.1,29.80,SSE,163,0.0,0.0,58,0.00,,---,0.00,VWS V14.01,2013-10-23 10:58:00,
2013-10-23 04:04:00,42.6,28.9,29.80,SSE,163,0.0,0.0,58,0.00,,---,0.00,VWS V14.01,2013-10-23 11:04:00,
2013-10-23 04:10:00,42.8,29.9,29.80,SSE,163,0.0,0.0,60,0.00,,---,0.00,VWS V14.01,2013-10-23 11:10:00,
2013-10-23 04:16:00,42.6,29.7,29.80,SSE,163,0.0,0.0,60,0.00,,---,0.00,VWS V14.01,2013-10-23 11:16:00,
2013-10-23 04:22:00,42.6,29.7,29.80,SSE,163,0.0,0.0,60,0.00,,---,0.00,VWS V14.01,2013-10-23 11:22:00,
2013-10-23 04:28:00,42.6,29.3,29.80,SSE,163,0.0,0.0,59,0.00,,---,0.00,VWS V14.01,2013-10-23 11:28:00,
2013-10-23 04:34:00,42.6,29.7,29.80,SSE,163,0.0,0.0,60,0.00,,---,0.00,VWS V14.01,2013-10-23 11:34:00,
2013-10-23 04:40:00,42.6,29.7,29.80,SSE,163,0.0,0.0,60,0.00,,---,0.00,VWS V14.01,2013-10-23 11:40:00,
2013-10-23 04:46:00,42.8,30.3,29.80,SSE,163,0.0,0.0,61,0.00,,---,0.00,VWS V14.01,2013-10-23 11:46:00,
2013-10-23 04:52:00,42.4,29.5,29.80,SSE,163,0.0,0.0,60,0.00,,---,0.00,VWS V14.01,2013-10-23 11:52:00,
2013-10-23 04:58:00,42.3,29.4,29.80,SSE,163,0.0,0.0,60,0.00,,---,0.00,VWS V14.01,2013-10-23 11:58:00,
2013-10-23 05:04:00,42.4,30.0,29.80,SSE,163,0.0,0.0,61,0.00,,---,0.00,VWS V14.01,2013-10-23 12:04:00,
2013-10-23 05:10:00,42.3,30.2,29.80,SSE,163,0.0,0.0,62,0.00,,---,0.00,VWS V14.01,2013-10-23 12:10:00,
2013-10-23 05:16:00,41.9,27.8,29.80,SSE,163,0.0,0.0,57,0.00,,---,0.00,VWS V14.01,2013-10-23 12:16:00,
2013-10-23 05:22:00,41.7,25.9,29.80,SSE,163,0.0,0.0,53,0.00,,---,0.00,VWS V14.01,2013-10-23 12:22:00,
2013-10-23 05:28:00,41.7,26.8,29.80,SSE,163,0.0,0.0,55,0.00,,---,0.00,VWS V14.01,2013-10-23 12:28:00,
2013-10-23 05:34:00,41.7,27.6,29.80,SSE,163,0.0,0.0,57,0.00,,---,0.00,VWS V14.01,2013-10-23 12:34:00,
2013-10-23 05:40:00,41.9,28.6,29.80,SSE,163,0.0,0.0,59,0.00,,---,0.00,VWS V14.01,2013-10-23 12:40:00,
2013-10-23 05:46:00,41.9,29.0,29.80,SSE,163,0.0,0.0,60,0.00,,---,0.00,VWS V14.01,2013-10-23 12:46:00,
2013-10-23 05:52:00,41.7,29.3,29.80,SSE,163,0.0,0.0,61,0.00,,---,0.00,VWS V14.01,2013-10-23 12:52:00,
2013-10-23 05:58:00,41.7,29.3,29.80,SSE,163,0.0,0.0,61,0.00,,---,0.00,VWS V14.01,2013-10-23 12:58:00,
2013-10-23 06:04:00,42.1,30.0,29.80,SSE,163,0.0,0.0,62,0.00,,---,0.00,VWS V14.01,2013-10-23 13:04:00,
2013-10-23 06:10:00,42.1,30.4,29.80,SSE,163,0.0,0.0,63,0.00,,---,0.00,VWS V14.01,2013-10-23 13:10:00,
2013-10-23 06:16:00,42.3,30.6,29.80,SSE,163,0.0,0.0,63,0.00,,---,0.00,VWS V14.01,2013-10-23 13:16:00,
2013-10-23 06:22:00,42.3,31.0,29.80,SSE,163,0.0,0.0,64,0.00,,---,0.00,VWS V14.01,2013-10-23 13:22:00,
2013-10-23 06:28:00,42.3,30.6,29.80,SSE,163,0.0,0.0,63,0.00,,---,0.00,VWS V14.01,2013-10-23 13:28:00,
2013-10-23 06:34:00,42.1,30.0,29.80,SSE,163,0.0,0.0,62,0.00,,---,0.00,VWS V14.01,2013-10-23 13:34:00,
2013-10-23 06:40:00,42.1,30.4,29.80,SSE,163,0.0,0.0,63,0.00,,---,0.00,VWS V14.01,2013-10-23 13:40:00,
2013-10-23 06:46:00,42.1,30.0,29.80,SSE,163,0.0,0.0,62,0.00,,---,0.00,VWS V14.01,2013-10-23 13:46:00,
2013-10-23 06:52:00,42.1,30.4,29.80,SSE,163,0.0,0.0,63,0.00,,---,0.00,VWS V14.01,2013-10-23 13:52:00,
2013-10-23 06:58:00,41.9,29.9,29.80,SSE,163,0.0,0.0,62,0.00,,---,0.00,VWS V14.01,2013-10-23 13:58:00,
2013-10-23 07:04:00,41.7,29.3,29.80,SSE,163,0.0,0.0,61,0.00,,---,0.00,VWS V14.01,2013-10-23 14:04:00,
2013-10-23 07:10:00,41.5,28.7,29.80,SSE,163,0.0,0.0,60,0.00,,---,0.00,VWS V14.01,2013-10-23 14:10:00,
2013-10-23 07:16:00,41.2,28.8,29.80,SSE,163,0.0,0.0,61,0.00,,---,0.00,VWS V14.01,2013-10-23 14:16:00,
2013-10-23 07:22:00,41.0,28.2,29.80,SSE,163,0.0,0.0,60,0.00,,---,0.00,VWS V14.01,2013-10-23 14:22:00,
2013-10-23 07:28:00,40.8,27.2,29.80,SSE,163,0.0,0.0,58,0.00,,---,0.00,VWS V14.01,2013-10-23 14:28:00,
2013-10-23 07:34:00,40.6,27.0,29.80,SSE,163,0.0,0.0,58,0.00,,---,0.00,VWS V14.01,2013-10-23 14:34:00,
2013-10-23 07:40:00,40.5,26.9,29.80,SSE,163,0.0,0.0,58,0.00,,---,0.00,VWS V14.01,2013-10-23 14:40:00,
2013-10-23 07:46:00,40.3,27.5,29.80,SSE,163,0.0,0.0,60,0.00,,---,0.00,VWS V14.01,2013-10-23 14:46:00,
2013-10-23 07:52:00,40.3,27.1,29.80,SSE,163,0.0,0.0,59,0.00,,---,0.00,VWS V14.01,2013-10-23 14:52:00,
2013-10-23 07:58:00,40.1,26.5,29.80,SSE,163,0.0,0.0,58,0.00,,---,0.00,VWS V14.01,2013-10-23 14:58:00,
2013-10-23 08:04:00,39.9,25.5,29.80,SSE,163,0.0,0.0,56,0.00,,---,0.00,VWS V14.01,2013-10-23 15:04:00,
2013-10-23 08:10:00,39.9,25.5,29.80,SSE,163,0.0,0.0,56,0.00,,---,0.00,VWS V14.01,2013-10-23 15:10:00,
2013-10-23 08:16:00,39.9,25.1,29.80,SSE,163,0.0,0.0,55,0.00,,---,0.00,VWS V14.01,2013-10-23 15:16:00,
2013-10-23 08:22:00,40.1,25.2,29.80,SSE,163,0.0,0.0,55,0.00,,---,0.00,VWS V14.01,2013-10-23 15:22:00,
2013-10-23 08:28:00,39.9,25.1,29.80,SSE,163,0.0,0.0,55,0.00,,---,0.00,VWS V14.01,2013-10-23 15:28:00,
2013-10-23 08:34:00,39.9,25.9,29.80,SSE,163,0.0,0.0,57,0.00,,---,0.00,VWS V14.01,2013-10-23 15:34:00,
2013-10-23 08:40:00,40.1,26.5,29.80,SSE,163,0.0,0.0,58,0.00,,---,0.00,VWS V14.01,2013-10-23 15:40:00,
2013-10-23 08:46:00,40.3,27.1,29.80,SSE,163,0.0,0.0,59,0.00,,---,0.00,VWS V14.01,2013-10-23 15:46:00,
2013-10-23 08:52:00,39.9,25.5,29.80,SSE,163,0.0,0.0,56,0.00,,---,0.00,VWS V14.01,2013-10-23 15:52:00,
2013-10-23 08:58:00,39.7,25.3,29.80,SSE,163,0.0,0.0,56,0.00,,---,0.00,VWS V14.01,2013-10-23 15:58:00,
2013-10-23 09:04:00,39.9,26.8,29.80,SSE,163,0.0,0.0,59,0.00,,---,0.00,VWS V14.01,2013-10-23 16:04:00,
2013-10-23 09:10:00,40.3,27.9,29.80,SSE,163,0.0,0.0,61,0.00,,---,0.00,VWS V14.01,2013-10-23 16:10:00,
2013-10-23 09:16:00,40.3,25.9,29.80,SSE,163,0.0,0.0,56,0.00,,---,0.00,VWS V14.01,2013-10-23 16:16:00,
2013-10-23 09:22:00,40.3,26.7,29.80,SSE,163,0.0,0.0,58,0.00,,---,0.00,VWS V14.01,2013-10-23 16:22:00,
2013-10-23 09:28:00,40.6,27.5,29.80,SSE,163,0.0,0.0,59,0.00,,---,0.00,VWS V14.01,2013-10-23 16:28:00,
2013-10-23 09:34:00,41.0,27.4,29.80,SSE,163,0.0,0.0,58,0.00,,---,0.00,VWS V14.01,2013-10-23 16:34:00,
2013-10-23 09:40:00,41.2,25.8,29.80,SSE,163,0.0,0.0,54,0.00,,---,0.00,VWS V14.01,2013-10-23 16:40:00,
2013-10-23 09:46:00,41.4,26.4,29.80,SSE,163,0.0,0.0,55,0.00,,---,0.00,VWS V14.01,2013-10-23 16:46:00,
2013-10-23 09:52:00,41.7,26.8,29.80,SSE,163,0.0,0.0,55,0.00,,---,0.00,VWS V14.01,2013-10-23 16:52:00,
2013-10-23 09:58:00,41.7,24.9,29.80,SSE,163,0.0,0.0,51,0.00,,---,0.00,VWS V14.01,2013-10-23 16:58:00,
2013-10-23 10:04:00,41.9,26.0,29.80,SSE,163,0.0,0.0,53,0.00,,---,0.00,VWS V14.01,2013-10-23 17:04:00,
2013-10-23 10:10:00,42.1,25.7,29.80,SSE,163,0.0,0.0,52,0.00,,---,0.00,VWS V14.01,2013-10-23 17:10:00,
2013-10-23 10:16:00,42.4,25.6,29.80,SSE,163,0.0,0.0,51,0.00,,---,0.00,VWS V14.01,2013-10-23 17:16:00,
2013-10-23 10:22:00,42.8,25.9,29.80,SSE,163,0.0,0.0,51,0.00,,---,0.00,VWS V14.01,2013-10-23 17:22:00,
2013-10-23 10:28:00,43.2,26.7,29.80,SSE,163,0.0,0.0,52,0.00,,---,0.00,VWS V14.01,2013-10-23 17:28:00,
2013-10-23 10:34:00,43.3,26.9,29.80,SSE,163,0.0,0.0,52,0.00,,---,0.00,VWS V14.01,2013-10-23 17:34:00,
2013-10-23 10:40:00,43.5,26.1,29.80,SSE,163,0.0,0.0,50,0.00,,---,0.00,VWS V14.01,2013-10-23 17:40:00,
2013-10-23 10:46:00,44.1,27.1,29.80,SSE,163,0.0,0.0,51,0.00,,---,0.00,VWS V14.01,2013-10-23 17:46:00,
2013-10-23 10:52:00,44.4,27.9,29.80,SSE,163,0.0,0.0,52,0.00,,---,0.00,VWS V14.01,2013-10-23 17:52:00,
2013-10-23 10:58:00,44.4,26.5,29.80,SSE,163,0.0,0.0,49,0.00,,---,0.00,VWS V14.01,2013-10-23 17:58:00,
2013-10-23 11:04:00,44.4,26.0,29.80,SSE,163,0.0,0.0,48,0.00,,---,0.00,VWS V14.01,2013-10-23 18:04:00,
2013-10-23 11:10:00,45.0,27.5,29.80,SSE,163,0.0,0.0,50,0.00,,---,0.00,VWS V14.01,2013-10-23 18:10:00,
2013-10-23 11:16:00,45.5,28.4,29.80,SSE,163,0.0,0.0,51,0.00,,---,0.00,VWS V14.01,2013-10-23 18:16:00,
2013-10-23 11:22:00,46.0,28.5,29.80,SSE,163,0.0,0.0,50,0.00,,---,0.00,VWS V14.01,2013-10-23 18:22:00,
2013-10-23 11:28:00,46.4,28.3,29.80,SSE,163,0.0,0.0,49,0.00,,---,0.00,VWS V14.01,2013-10-23 18:28:00,
2013-10-23 11:34:00,46.4,28.3,29.80,SSE,163,0.0,0.0,49,0.00,,---,0.00,VWS V14.01,2013-10-23 18:34:00,
2013-10-23 11:40:00,46.6,28.0,29.80,SSE,163,0.0,0.0,48,0.00,,---,0.00,VWS V14.01,2013-10-23 18:40:00,
2013-10-23 11:46:00,46.9,28.3,29.80,SSE,163,0.0,0.0,48,0.00,,---,0.00,VWS V14.01,2013-10-23 18:46:00,
2013-10-23 11:52:00,47.3,29.1,29.80,SSE,163,0.0,0.0,49,0.00,,---,0.00,VWS V14.01,2013-10-23 18:52:00,
2013-10-23 11:58:00,47.3,29.1,29.80,SSE,163,0.0,0.0,49,0.00,,---,0.00,VWS V14.01,2013-10-23 18:58:00,
2013-10-23 12:04:00,47.7,30.0,29.80,SSE,163,0.0,0.0,50,0.00,,---,0.00,VWS V14.01,2013-10-23 19:04:00,
2013-10-23 12:10:00,47.7,29.5,29.80,SSE,163,0.0,0.0,49,0.00,,---,0.00,VWS V14.01,2013-10-23 19:10:00,
2013-10-23 12:16:00,48.0,29.8,29.80,SW,218,0.0,0.0,49,0.00,,---,0.00,VWS V14.01,2013-10-23 19:16:00,
2013-10-23 12:22:00,48.6,30.3,29.80,SW,216,0.0,0.0,49,0.00,,---,0.00,VWS V14.01,2013-10-23 19:22:00,
2013-10-23 12:28:00,48.9,30.1,29.80,SSW,199,0.0,0.0,48,0.00,,---,0.00,VWS V14.01,2013-10-23 19:28:00,
2013-10-23 12:34:00,49.5,30.6,29.80,SSW,199,0.0,0.0,48,0.00,,---,0.00,VWS V14.01,2013-10-23 19:34:00,
2013-10-23 12:40:00,50.0,30.6,29.80,SSW,199,0.0,0.0,47,0.00,,---,0.00,VWS V14.01,2013-10-23 19:40:00,
2013-10-23 12:46:00,50.2,29.7,29.80,SSW,199,0.0,0.0,45,0.00,,---,0.00,VWS V14.01,2013-10-23 19:46:00,
2013-10-23 12:52:00,50.2,28.6,29.80,SSW,199,0.0,0.0,43,0.00,,---,0.00,VWS V14.01,2013-10-23 19:52:00,
2013-10-23 12:58:00,50.5,29.5,29.77,SSW,199,0.0,0.0,44,0.00,,---,0.00,VWS V14.01,2013-10-23 19:58:00,
2013-10-23 13:04:00,50.9,29.2,29.77,SSW,199,0.0,0.0,43,0.00,,---,0.00,VWS V14.01,2013-10-23 20:04:00,
2013-10-23 13:10:00,51.3,28.4,29.77,SSW,199,0.0,0.0,41,0.00,,---,0.00,VWS V14.01,2013-10-23 20:10:00,
2013-10-23 13:16:00,51.4,28.5,29.77,SSW,199,0.0,0.0,41,0.00,,---,0.00,VWS V14.01,2013-10-23 20:16:00,
2013-10-23 13:22:00,51.8,28.3,29.77,SE,128,0.0,0.0,40,0.00,,---,0.00,VWS V14.01,2013-10-23 20:22:00,
2013-10-23 13:28:00,52.2,28.0,29.77,SE,142,0.0,0.0,39,0.00,,---,0.00,VWS V14.01,2013-10-23 20:28:00,
2013-10-23 13:34:00,52.3,28.1,29.77,SE,142,0.0,0.0,39,0.00,,---,0.00,VWS V14.01,2013-10-23 20:34:00,
2013-10-23 13:40:00,52.7,28.5,29.77,South,186,0.0,0.0,39,0.00,,---,0.00,VWS V14.01,2013-10-23 20:40:00,
2013-10-23 13:46:00,53.1,28.1,29.77,South,183,0.0,0.0,38,0.00,,---,0.00,VWS V14.01,2013-10-23 20:46:00,
2013-10-23 13:52:00,53.4,28.5,29.77,South,183,0.0,0.0,38,0.00,,---,0.00,VWS V14.01,2013-10-23 20:52:00,
2013-10-23 13:58:00,53.8,28.1,29.77,SSW,212,0.0,0.0,37,0.00,,---,0.00,VWS V14.01,2013-10-23 20:58:00,
2013-10-23 14:04:00,54.1,28.5,29.77,West,269,0.0,0.0,37,0.00,,---,0.00,VWS V14.01,2013-10-23 21:04:00,
2013-10-23 14:10:00,54.3,28.0,29.77,SE,129,0.0,0.0,36,0.00,,---,0.00,VWS V14.01,2013-10-23 21:10:00,
2013-10-23 14:16:00,54.7,28.3,29.77,SE,129,0.0,0.0,36,0.00,,---,0.00,VWS V14.01,2013-10-23 21:16:00,
2013-10-23 14:22:00,54.9,28.4,29.77,ESE,115,0.0,0.0,36,0.00,,---,0.00,VWS V14.01,2013-10-23 21:22:00,
2013-10-23 14:28:00,54.7,28.3,29.77,South,170,0.0,0.0,36,0.00,,---,0.00,VWS V14.01,2013-10-23 21:28:00,
2013-10-23 14:34:00,54.7,28.3,29.77,WSW,243,0.0,2.7,36,0.00,,---,0.00,VWS V14.01,2013-10-23 21:34:00,
2013-10-23 14:40:00,55.0,28.6,29.74,ESE,114,0.0,0.0,36,0.00,,---,0.00,VWS V14.01,2013-10-23 21:40:00,
2013-10-23 14:46:00,55.4,28.2,29.74,SSW,194,0.0,0.0,35,0.00,,---,0.00,VWS V14.01,2013-10-23 21:46:00,
2013-10-23 14:52:00,55.6,28.4,29.74,SW,225,0.0,0.0,35,0.00,,---,0.00,VWS V14.01,2013-10-23 21:52:00,
2013-10-23 14:58:00,55.8,28.5,29.74,SW,225,0.0,0.0,35,0.00,,---,0.00,VWS V14.01,2013-10-23 21:58:00,
2013-10-23 15:04:00,55.6,28.4,29.74,SW,221,0.0,0.0,35,0.00,,---,0.00,VWS V14.01,2013-10-23 22:04:00,
2013-10-23 15:10:00,55.8,28.5,29.74,SW,221,0.0,0.0,35,0.00,,---,0.00,VWS V14.01,2013-10-23 22:10:00,
2013-10-23 15:16:00,55.9,28.7,29.74,SSE,162,0.0,0.0,35,0.00,,---,0.00,VWS V14.01,2013-10-23 22:16:00,
2013-10-23 15:22:00,55.9,28.7,29.74,SW,226,0.0,0.0,35,0.00,,---,0.00,VWS V14.01,2013-10-23 22:22:00,
2013-10-23 15:28:00,56.1,28.9,29.74,SSW,210,0.0,0.0,35,0.00,,---,0.00,VWS V14.01,2013-10-23 22:28:00,
2013-10-23 15:34:00,56.3,29.0,29.74,SSW,196,0.0,0.0,35,0.00,,---,0.00,VWS V14.01,2013-10-23 22:34:00,
2013-10-23 15:40:00,56.5,29.2,29.74,SSW,196,0.0,0.0,35,0.00,,---,0.00,VWS V14.01,2013-10-23 22:40:00,
2013-10-23 15:46:00,56.7,29.3,29.74,SSW,196,0.0,0.0,35,0.00,,---,0.00,VWS V14.01,2013-10-23 22:46:00,
2013-10-23 15:52:00,56.8,29.5,29.74,SSW,196,0.0,0.0,35,0.00,,---,0.00,VWS V14.01,2013-10-23 22:52:00,
2013-10-23 15:58:00,56.8,29.5,29.74,SSW,196,0.0,0.0,35,0.00,,---,0.00,VWS V14.01,2013-10-23 22:58:00,
2013-10-23 16:04:00,56.8,29.5,29.74,SSW,196,0.0,0.0,35,0.00,,---,0.00,VWS V14.01,2013-10-23 23:04:00,
2013-10-23 16:10:00,56.7,29.3,29.74,SSW,196,0.0,0.0,35,0.00,,---,0.00,VWS V14.01,2013-10-23 23:10:00,
2013-10-23 16:16:00,56.5,29.2,29.74,SSW,196,0.0,0.0,35,0.00,,---,0.00,VWS V14.01,2013-10-23 23:16:00,
2013-10-23 16:22:00,56.5,29.2,29.74,SSW,196,0.0,0.0,35,0.00,,---,0.00,VWS V14.01,2013-10-23 23:22:00,
2013-10-23 16:28:00,56.5,29.2,29.74,SSW,196,0.0,0.0,35,0.00,,---,0.00,VWS V14.01,2013-10-23 23:28:00,
2013-10-23 16:34:00,56.3,29.0,29.74,SSW,196,0.0,0.0,35,0.00,,---,0.00,VWS V14.01,2013-10-23 23:34:00,
2013-10-23 16:40:00,56.1,28.9,29.74,SSW,196,0.0,0.0,35,0.00,,---,0.00,VWS V14.01,2013-10-23 23:40:00,
2013-10-23 16:46:00,55.9,28.7,29.74,SSW,196,0.0,0.0,35,0.00,,---,0.00,VWS V14.01,2013-10-23 23:46:00,
2013-10-23 16:52:00,55.8,28.5,29.74,SSW,196,0.0,0.0,35,0.00,,---,0.00,VWS V14.01,2013-10-23 23:52:00,
2013-10-23 16:58:00,55.6,28.4,29.74,SSW,196,0.0,0.0,35,0.00,,---,0.00,VWS V14.01,2013-10-23 23:58:00,
2013-10-23 17:04:00,55.4,28.9,29.74,SSW,196,0.0,0.0,36,0.00,,---,0.00,VWS V14.01,2013-10-24 00:04:00,
2013-10-23 17:10:00,55.0,28.6,29.74,SSW,196,0.0,0.0,36,0.00,,---,0.00,VWS V14.01,2013-10-24 00:10:00,
2013-10-23 17:16:00,54.7,28.3,29.74,SSW,196,0.0,0.0,36,0.00,,---,0.00,VWS V14.01,2013-10-24 00:16:00,
2013-10-23 17:22:00,54.1,28.5,29.74,SSW,196,0.0,0.0,37,0.00,,---,0.00,VWS V14.01,2013-10-24 00:22:00,
2013-10-23 17:28:00,53.8,29.4,29.74,SSW,196,0.0,0.0,39,0.00,,---,0.00,VWS V14.01,2013-10-24 00:28:00,
2013-10-23 17:34:00,53.4,29.7,29.74,SSW,196,0.0,0.0,40,0.00,,---,0.00,VWS V14.01,2013-10-24 00:34:00,
2013-10-23 17:40:00,53.1,30.6,29.74,SSW,196,0.0,0.0,42,0.00,,---,0.00,VWS V14.01,2013-10-24 00:40:00,
2013-10-23 17:46:00,52.7,29.7,29.74,SSW,196,0.0,0.0,41,0.00,,---,0.00,VWS V14.01,2013-10-24 00:46:00,
2013-10-23 17:52:00,52.3,29.4,29.74,SSW,196,0.0,0.0,41,0.00,,---,0.00,VWS V14.01,2013-10-24 00:52:00,
2013-10-23 17:58:00,52.2,29.8,29.74,SSW,196,0.0,0.0,42,0.00,,---,0.00,VWS V14.01,2013-10-24 00:58:00,
2013-10-23 18:04:00,51.6,29.9,29.74,SSW,196,0.0,0.0,43,0.00,,---,0.00,VWS V14.01,2013-10-24 01:04:00,
2013-10-23 18:10:00,51.4,31.9,29.74,SSW,196,0.0,0.0,47,0.00,,---,0.00,VWS V14.01,2013-10-24 01:10:00,
2013-10-23 18:16:00,51.1,31.0,29.74,SSW,196,0.0,0.0,46,0.00,,---,0.00,VWS V14.01,2013-10-24 01:16:00,
2013-10-23 18:22:00,50.7,31.2,29.74,SSW,196,0.0,0.0,47,0.00,,---,0.00,VWS V14.01,2013-10-24 01:22:00,
2013-10-23 18:28:00,50.4,30.9,29.74,SSW,196,0.0,0.0,47,0.00,,---,0.00,VWS V14.01,2013-10-24 01:28:00,
2013-10-23 18:34:00,50.2,30.8,29.74,SSW,196,0.0,0.0,47,0.00,,---,0.00,VWS V14.01,2013-10-24 01:34:00,
2013-10-23 18:40:00,49.8,30.9,29.74,SSW,196,0.0,0.0,48,0.00,,---,0.00,VWS V14.01,2013-10-24 01:40:00,
2013-10-23 18:46:00,49.6,30.2,29.74,SSW,196,0.0,0.0,47,0.00,,---,0.00,VWS V14.01,2013-10-24 01:46:00,
2013-10-23 18:52:00,49.3,30.4,29.74,SSW,196,0.0,0.0,48,0.00,,---,0.00,VWS V14.01,2013-10-24 01:52:00,
2013-10-23 18:58:00,49.1,30.3,29.74,SSW,196,0.0,0.0,48,0.00,,---,0.00,VWS V14.01,2013-10-24 01:58:00,
2013-10-23 19:04:00,48.9,30.1,29.74,SSW,196,0.0,0.0,48,0.00,,---,0.00,VWS V14.01,2013-10-24 02:04:00,
2013-10-23 19:10:00,48.7,30.5,29.74,SSW,196,0.0,0.0,49,0.00,,---,0.00,VWS V14.01,2013-10-24 02:10:00,
2013-10-23 19:16:00,48.6,30.3,29.74,SSW,196,0.0,0.0,49,0.00,,---,0.00,VWS V14.01,2013-10-24 02:16:00,
2013-10-23 19:22:00,48.4,30.1,29.74,SSW,196,0.0,0.0,49,0.00,,---,0.00,VWS V14.01,2013-10-24 02:22:00,
2013-10-23 19:28:00,48.0,29.8,29.74,SSW,196,0.0,0.0,49,0.00,,---,0.00,VWS V14.01,2013-10-24 02:28:00,
2013-10-23 19:34:00,47.8,29.6,29.74,SSW,196,0.0,0.0,49,0.00,,---,0.00,VWS V14.01,2013-10-24 02:34:00,
2013-10-23 19:40:00,47.7,30.0,29.74,SSW,196,0.0,0.0,50,0.00,,---,0.00,VWS V14.01,2013-10-24 02:40:00,
2013-10-23 19:46:00,47.5,29.8,29.74,SSW,196,0.0,0.0,50,0.00,,---,0.00,VWS V14.01,2013-10-24 02:46:00,
2013-10-23 19:52:00,47.1,29.5,29.74,SSW,196,0.0,0.0,50,0.00,,---,0.00,VWS V14.01,2013-10-24 02:52:00,
2013-10-23 19:58:00,46.9,29.3,29.74,SSW,196,0.0,0.0,50,0.00,,---,0.00,VWS V14.01,2013-10-24 02:58:00,
2013-10-23 20:04:00,46.9,29.8,29.74,SSW,196,0.0,0.0,51,0.00,,---,0.00,VWS V14.01,2013-10-24 03:04:00,
2013-10-23 20:10:00,46.8,29.6,29.74,SSW,196,0.0,0.0,51,0.00,,---,0.00,VWS V14.01,2013-10-24 03:10:00,
2013-10-23 20:16:00,46.6,29.4,29.74,SSW,196,0.0,0.0,51,0.00,,---,0.00,VWS V14.01,2013-10-24 03:16:00,
2013-10-23 20:22:00,46.4,29.3,29.74,SSW,196,0.0,0.0,51,0.00,,---,0.00,VWS V14.01,2013-10-24 03:22:00,
2013-10-23 20:28:00,46.2,29.1,29.74,SSW,196,0.0,0.0,51,0.00,,---,0.00,VWS V14.01,2013-10-24 03:28:00,
2013-10-23 20:34:00,46.0,28.9,29.74,SSW,196,0.0,0.0,51,0.00,,---,0.00,VWS V14.01,2013-10-24 03:34:00,
2013-10-23 20:40:00,46.0,29.4,29.74,SSW,196,0.0,0.0,52,0.00,,---,0.00,VWS V14.01,2013-10-24 03:40:00,
2013-10-23 20:46:00,46.0,29.4,29.74,SSW,196,0.0,0.0,52,0.00,,---,0.00,VWS V14.01,2013-10-24 03:46:00,
2013-10-23 20:52:00,45.9,29.2,29.74,SSW,196,0.0,0.0,52,0.00,,---,0.00,VWS V14.01,2013-10-24 03:52:00,
2013-10-23 20:58:00,46.0,29.4,29.77,SSW,196,0.0,0.0,52,0.00,,---,0.00,VWS V14.01,2013-10-24 03:58:00,
2013-10-23 21:02:00,45.9,29.2,29.77,SSW,196,0.0,0.0,52,0.00,,---,0.00,VWS V14.01,2013-10-24 04:02:00,
2013-10-23 21:04:00,45.9,29.2,29.77,SSW,196,0.0,0.0,52,0.00,,---,0.00,VWS V14.01,2013-10-24 04:04:00,
2013-10-23 21:06:00,45.9,29.2,29.77,SSW,196,0.0,0.0,52,0.00,,---,0.00,VWS V14.01,2013-10-24 04:06:00,
2013-10-23 21:10:00,45.7,29.1,29.77,SSW,196,0.0,0.0,52,0.00,,---,0.00,VWS V14.01,2013-10-24 04:10:00,
2013-10-23 21:16:00,45.5,28.9,29.77,SSW,196,0.0,0.0,52,0.00,,---,0.00,VWS V14.01,2013-10-24 04:16:00,
2013-10-23 21:20:00,45.5,29.4,29.77,SSW,196,0.0,0.0,53,0.00,,---,0.00,VWS V14.01,2013-10-24 04:20:00,
2013-10-23 21:26:00,45.3,28.8,29.77,SSW,196,0.0,0.0,52,0.00,,---,0.00,VWS V14.01,2013-10-24 04:26:00,
2013-10-23 21:32:00,45.3,29.2,29.77,SSW,196,0.0,0.0,53,0.00,,---,0.00,VWS V14.01,2013-10-24 04:32:00,
2013-10-23 21:38:00,45.1,29.0,29.77,SSW,196,0.0,0.0,53,0.00,,---,0.00,VWS V14.01,2013-10-24 04:38:00,
2013-10-23 21:44:00,45.0,28.9,29.77,SSW,196,0.0,0.0,53,0.00,,---,0.00,VWS V14.01,2013-10-24 04:44:00,
2013-10-23 21:50:00,44.8,28.7,29.77,SSW,196,0.0,0.0,53,0.00,,---,0.00,VWS V14.01,2013-10-24 04:50:00,
2013-10-23 21:56:00,44.8,28.7,29.77,SSW,196,0.0,0.0,53,0.00,,---,0.00,VWS V14.01,2013-10-24 04:56:00,
2013-10-23 22:02:00,44.6,28.5,29.77,SSW,196,0.0,0.0,53,0.00,,---,0.00,VWS V14.01,2013-10-24 05:02:00,
2013-10-23 22:08:00,44.6,28.5,29.77,SSW,196,0.0,0.0,53,0.00,,---,0.00,VWS V14.01,2013-10-24 05:08:00,
2013-10-23 22:14:00,44.4,28.8,29.77,SSW,196,0.0,0.0,54,0.00,,---,0.00,VWS V14.01,2013-10-24 05:14:00,
2013-10-23 22:20:00,44.2,28.7,29.77,SSW,196,0.0,0.0,54,0.00,,---,0.00,VWS V14.01,2013-10-24 05:20:00,
2013-10-23 22:26:00,44.2,28.7,29.77,SSW,196,0.0,0.0,54,0.00,,---,0.00,VWS V14.01,2013-10-24 05:26:00,
2013-10-23 22:32:00,44.2,28.7,29.77,SSW,196,0.0,0.0,54,0.00,,---,0.00,VWS V14.01,2013-10-24 05:32:00,
2013-10-23 22:38:00,44.1,28.5,29.77,SSW,196,0.0,0.0,54,0.00,,---,0.00,VWS V14.01,2013-10-24 05:38:00,
2013-10-23 22:44:00,43.9,28.3,29.77,SSW,196,0.0,0.0,54,0.00,,---,0.00,VWS V14.01,2013-10-24 05:44:00,
2013-10-23 22:50:00,43.7,28.2,29.77,SSW,196,0.0,0.0,54,0.00,,---,0.00,VWS V14.01,2013-10-24 05:50:00,
2013-10-23 22:56:00,43.5,28.0,29.77,SSW,196,0.0,0.0,54,0.00,,---,0.00,VWS V14.01,2013-10-24 05:56:00,
2013-10-23 23:02:00,43.3,27.8,29.77,SSW,196,0.0,0.0,54,0.00,,---,0.00,VWS V14.01,2013-10-24 06:02:00,
2013-10-23 23:08:00,43.3,27.8,29.77,SSW,196,0.0,0.0,54,0.00,,---,0.00,VWS V14.01,2013-10-24 06:08:00,
2013-10-23 23:14:00,43.0,27.5,29.77,SSW,196,0.0,0.0,54,0.00,,---,0.00,VWS V14.01,2013-10-24 06:14:00,
2013-10-23 23:20:00,43.0,27.5,29.77,SSW,196,0.0,0.0,54,0.00,,---,0.00,VWS V14.01,2013-10-24 06:20:00,
2013-10-23 23:26:00,42.8,27.3,29.77,SSW,196,0.0,0.0,54,0.00,,---,0.00,VWS V14.01,2013-10-24 06:26:00,
2013-10-23 23:32:00,42.8,27.3,29.77,SSW,196,0.0,0.0,54,0.00,,---,0.00,VWS V14.01,2013-10-24 06:32:00,
2013-10-23 23:38:00,42.6,27.6,29.77,SSW,196,0.0,0.0,55,0.00,,---,0.00,VWS V14.01,2013-10-24 06:38:00,
2013-10-23 23:44:00,42.4,27.4,29.77,SSW,196,0.0,0.0,55,0.00,,---,0.00,VWS V14.01,2013-10-24 06:44:00,
2013-10-23 23:50:00,42.4,27.4,29.77,SSW,196,0.0,0.0,55,0.00,,---,0.00,VWS V14.01,2013-10-24 06:50:00,
2013-10-23 23:56:00,42.4,27.4,29.80,SSW,196,0.0,0.0,55,0.00,,---,0.00,VWS V14.01,2013-10-24 06:56:00,